[[{"header":{"parameterUnit":"m.s-1","parameterCategory":1,"la1":30.2991,"la2":30.254,"lo1":-89.0895,"lo2":-89.0444,"dy":0.0017,"dx":0.0017,"nx":28,"ny":28,"refTime":"2025-08-30T03:00:00:Z","depth":0,"parameterNumber":2,"parameterNumberName":"U-component_of_WINDS"},"data":[0,0,0,0,0,0,0,0,0,0,0,0,0,0,0,0,0,0,0,0,0,0,0,0,0,0,0,0,0,0,0,0,0,0,0,0,0,0,0,0,0,0,0,0,0,0,0,0,0,0,0,0,0,0,0,0,0,0,-3.9158,-3.9157,0,-3.9137,-3.9137,-3.9137,-3.8978,-3.8974,-3.8971,-3.8967,-3.8949,-3.8952,-3.8955,0,0,0,0,0,0,0,0,0,0,0,0,0,-3.9062,-3.9065,-3.9158,-3.9157,-3.9157,-3.9137,-3.9137,-3.9137,-3.8979,-3.8974,-3.897,-3.8965,-3.8948,-3.8952,-3.8955,0,0,0,0,0,0,0,0,0,0,0,0,0,-3.9079,-3.9066,-3.9158,-3.9076,-3.9068,-3.9137,-3.9137,-3.9136,-3.898,-3.8974,-3.8968,-3.8963,-3.8947,-3.8951,-3.8956,-3.9102,0,0,-3.897,-3.8973,0,0,0,0,0,0,0,0,-3.9079,-3.9083,-3.9088,-3.9082,-3.9073,-3.9054,-3.9096,-3.9125,-3.8982,-3.9014,-3.8967,-3.896,-3.8989,-3.899,-3.8999,-3.9102,-3.9101,-3.8971,-3.8974,-3.8976,-3.8977,0,0,0,0,0,0,0,-3.9078,-3.9083,-3.9149,-3.9089,-3.908,-3.9041,-3.9037,-3.9101,-3.9035,-3.9011,-3.8999,-3.8999,-3.8984,-3.8995,-3.8997,-3.91,-3.8971,-3.8975,-3.8978,-3.898,-3.9321,-3.9326,0,0,0,0,0,0,-3.9087,-3.9083,-3.915,-3.9149,-3.9062,-3.9048,-3.9043,-3.9066,-3.9033,-3.9023,-3.9004,-3.8991,-3.899,-3.8992,-3.8996,-3.9164,-3.8976,-3.898,-3.8983,-3.9314,-3.9322,-3.9329,0,0,0,0,0,0,-3.9086,-3.9095,-3.9151,-3.9113,-3.9117,-3.9055,-3.9083,-3.9069,-3.908,-3.9028,-3.9016,-3.9027,-3.8985,-3.8989,-3.9076,-3.9161,-3.8982,-3.8987,-3.9307,-3.9317,-3.9325,-3.9501,0,0,0,0,0,0,-3.9084,-3.9095,-3.915,-3.9115,-3.912,-3.9232,-3.9088,-3.9073,-3.9088,-3.9072,-3.9047,-3.9037,-3.8981,-3.907,-3.9081,-3.9164,-3.899,-3.9299,-3.9311,-3.9322,-3.9488,-3.9516,-3.9539,0,0,0,0,0,-3.9081,-3.9201,-3.9154,-3.9162,-3.9186,-3.9237,-3.9239,-3.9171,-3.9096,-3.915,-3.9117,-3.9038,-3.915,-3.9081,-3.9092,-3.9177,-3.9294,-3.9308,-3.9321,-3.9476,-3.951,-3.9539,0,0,0,0,0,0,-3.9249,-3.9195,-3.9142,-3.9254,-3.9251,-3.921,-3.9276,-3.921,-3.9229,-3.9213,-3.9129,-3.9125,-3.9225,-3.921,-3.9133,-3.9316,-3.9208,-3.9225,-3.9322,-3.9354,-3.9379,-3.938,-3.8994,0,0,0,0,0,-3.9299,-3.9344,-3.9295,-3.9399,-3.94,-3.9339,-3.9358,-3.9306,-3.93,-3.9298,-3.9271,-3.9269,-3.9303,-3.9328,-3.9357,-3.9485,-3.9477,-3.955,-3.9576,-3.9597,-3.9612,-3.9677,-3.9709,-3.9375,-3.9374,-3.9374,0,0,-3.9403,-3.9379,-3.9413,-3.9432,-3.9423,-3.9471,-3.9339,-3.9396,-3.9431,-3.9307,-3.9387,-3.9368,-3.9359,-3.9467,-3.9514,-3.9458,-3.9703,-3.9615,-3.9632,-3.9636,-3.9695,-3.9727,-3.9755,-3.9384,-3.9382,-3.9381,0,0,-3.9616,-3.9604,-3.9687,-3.9681,-3.967,-3.9628,-3.9649,-3.9618,-3.96,-3.9678,-3.9586,-3.9627,-3.9689,-3.9686,-3.9693,-3.9906,-3.9833,-3.9918,-4.0052,-4.0117,-4.0143,-4.0166,-4.024,-4.0268,-3.9933,-3.9934,-3.9934,0,-3.9747,-3.9815,-3.974,-3.9802,-3.9813,-3.9702,-3.9787,-3.9785,-3.9784,-3.9795,-3.9732,-3.9806,-3.9794,-3.9899,-3.995,-3.996,-3.9981,-3.9919,-4.0145,-4.0168,-4.0188,-4.0258,-4.0286,-3.9944,-3.9943,-3.9942,-3.9941,0,-3.9976,-4.0025,-4.0094,-4.0094,-4.0113,-4.0187,-4.0123,-4.0152,-4.0098,-4.0064,-4.0145,-4.0126,-4.0148,-4.0169,-4.0119,-4.0268,-4.0233,-4.016,-4.0049,-4.0231,-4.0295,-4.0322,-3.9959,-3.9955,-3.9952,-3.9949,0,0,-4.0294,-4.025,-4.0277,-4.0275,-4.0254,-4.029,-4.036,-4.038,-4.0406,-4.0409,-4.0464,-4.0519,-4.045,-4.0459,-4.0407,-4.0464,-4.0631,-4.0383,-4.0381,-4.0428,-4.0793,-4.0847,-4.0879,-4.0584,-4.0589,-4.0593,-4.0793,0,-4.0497,-4.061,-4.0544,-4.0667,-4.0711,-4.0606,-4.0666,-4.066,-4.063,-4.0663,-4.063,-4.0669,-4.0577,-4.0581,-4.0633,-4.06,-4.0703,-4.0585,-4.0634,-4.0637,-4.0637,-4.0913,-4.097,-4.116,-4.0818,-4.0822,-4.0825,0,-4.0749,-4.0762,-4.0889,-4.0858,-4.0874,-4.0928,-4.0941,-4.0975,-4.0966,-4.094,-4.0949,-4.0883,-4.0948,-4.0841,-4.093,-4.0851,-4.0867,-4.0854,-4.086,-4.086,-4.0741,-4.0919,-4.1219,-4.1247,-4.0864,-4.0861,-4.0858,0,-4.0966,-4.1015,-4.1096,-4.1099,-4.1065,-4.1106,-4.1094,-4.1079,-4.1096,-4.1108,-4.1117,-4.1139,-4.115,-4.1167,-4.1109,-4.1036,-4.1205,-4.1093,-4.1185,-4.1187,-4.1224,-4.1222,-4.1529,-4.1239,-4.1238,-4.1238,-4.1237,0,-4.1199,-4.128,-4.1193,-4.1243,-4.1331,-4.1256,-4.1345,-4.1322,-4.131,-4.1354,-4.1267,-4.131,-4.1231,-4.1267,-4.1222,-4.1302,-4.1308,-4.1289,-4.1275,-4.1295,-4.1298,-4.1304,-4.1288,-4.1245,-4.1243,-4.1242,-4.1241,0,-4.1455,-4.14,-4.1482,-4.1443,-4.1435,-4.1502,-4.1469,-4.1514,-4.1478,-4.1535,-4.1545,-4.1489,-4.1526,-4.147,-4.1502,-4.1471,-4.1581,-4.1549,-4.1583,-4.1573,-4.1668,-4.1659,-4.1988,-4.2026,-4.1714,-4.1717,-4.172,0,-4.1606,-4.1666,-4.1633,-4.1656,-4.1649,-4.1687,-4.1702,-4.163,-4.1651,-4.1645,-4.1691,-4.1721,-4.1741,-4.1806,-4.1769,-4.1793,-4.1759,-4.1873,-4.1762,-4.178,-4.1758,-4.1755,-4.176,-4.1895,-4.1898,-4.1902,-4.1904,0,-4.188,-4.1849,-4.1874,-4.1891,-4.1912,-4.1921,-4.1925,-4.1949,-4.1873,-4.19,-4.1937,-4.1952,-4.1984,-4.2015,-4.2029,-4.2018,-4.1949,-4.1939,-4.1962,-4.1982,-4.1998,-4.1989,-4.1643,-4.1932,-4.1929,-4.1927,-4.1925,-4.1924,-4.2086,-4.2134,-4.2118,-4.2149,-4.2143,-4.2148,-4.2188,-4.2157,-4.2186,-4.2204,-4.2161,-4.2208,-4.2198,-4.2209,-4.2206,-4.2242,-4.2192,-4.2225,-4.2233,-4.2242,-4.2256,-4.1995,-4.2245,-4.2244,-4.2243,-4.2242,-4.2242,0,-4.2353,-4.2337,-4.2367,-4.2373,-4.2398,-4.233,-4.233,-4.2355,-4.2397,-4.2393,-4.2414,-4.2456,-4.2485,-4.2451,-4.2474,-4.2509,-4.2478,-4.2518,-4.2513,-4.2511,-4.23,-4.2277,-4.2542,-4.2542,-4.2542,-4.2542,-4.2542,-4.2542,-4.2494,-4.2571,-4.2539,-4.2612,-4.2596,-4.264,-4.2645,-4.265,-4.2645,-4.2696,-4.2719,-4.2696,-4.2679,-4.27,-4.2724,-4.2713,-4.2725,-4.2776,-4.2754,-4.2556,-4.2527,-4.2498,-4.2476,-4.2779,-4.278,-4.2962,-4.2963,-4.2965]},{"header":{"parameterUnit":"m.s-1","parameterCategory":1,"la1":30.2991,"la2":30.254,"lo1":-89.0895,"lo2":-89.0444,"dy":0.0017,"dx":0.0017,"nx":28,"ny":28,"refTime":"2025-08-30T03:00:00:Z","depth":0,"parameterNumber":3,"parameterNumberName":"V-component_of_WINDS"},"data":[0,0,0,0,0,0,0,0,0,0,0,0,0,0,0,0,0,0,0,0,0,0,0,0,0,0,0,0,0,0,0,0,0,0,0,0,0,0,0,0,0,0,0,0,0,0,0,0,0,0,0,0,0,0,0,0,0,0,-2.2441,-2.2442,0,-2.2526,-2.2527,-2.2528,-2.2531,-2.253,-2.2529,-2.2528,-2.2612,-2.2616,-2.2619,0,0,0,0,0,0,0,0,0,0,0,0,0,-2.2274,-2.2277,-2.2441,-2.2442,-2.2443,-2.2526,-2.2527,-2.2529,-2.2531,-2.253,-2.2529,-2.2527,-2.2611,-2.2615,-2.2619,0,0,0,0,0,0,0,0,0,0,0,0,0,-2.2352,-2.2278,-2.244,-2.2454,-2.2456,-2.2526,-2.2527,-2.2529,-2.2531,-2.253,-2.2528,-2.2527,-2.261,-2.2615,-2.262,-2.268,0,0,-2.2634,-2.2636,0,0,0,0,0,0,0,0,-2.2348,-2.2358,-2.2451,-2.2453,-2.2456,-2.2516,-2.25,-2.258,-2.2532,-2.2503,-2.2528,-2.2526,-2.2582,-2.2589,-2.2608,-2.2684,-2.2688,-2.2635,-2.2638,-2.264,-2.2641,0,0,0,0,0,0,0,-2.2342,-2.2354,-2.2474,-2.2452,-2.2455,-2.2454,-2.2464,-2.2515,-2.255,-2.2505,-2.2506,-2.2516,-2.2583,-2.2603,-2.261,-2.2689,-2.2635,-2.2639,-2.2642,-2.2644,-2.2817,-2.2818,0,0,0,0,0,0,-2.2335,-2.235,-2.2472,-2.2477,-2.2397,-2.2459,-2.2469,-2.2499,-2.2549,-2.2556,-2.2517,-2.2516,-2.2596,-2.2604,-2.2613,-2.2686,-2.264,-2.2644,-2.2647,-2.2815,-2.2817,-2.2819,0,0,0,0,0,0,-2.2331,-2.2346,-2.2468,-2.2414,-2.2429,-2.2463,-2.2496,-2.2501,-2.2522,-2.2558,-2.2564,-2.2532,-2.2595,-2.2606,-2.2663,-2.2689,-2.2646,-2.2651,-2.2813,-2.2816,-2.2818,-2.2834,0,0,0,0,0,0,-2.2326,-2.2344,-2.2369,-2.2414,-2.2432,-2.2519,-2.2498,-2.2504,-2.2531,-2.253,-2.2574,-2.258,-2.2595,-2.2656,-2.2668,-2.2695,-2.2655,-2.2811,-2.2814,-2.2817,-2.2831,-2.2836,-2.2841,0,0,0,0,0,-2.232,-2.237,-2.237,-2.2385,-2.2464,-2.252,-2.253,-2.2547,-2.2533,-2.2557,-2.258,-2.2579,-2.2684,-2.2662,-2.2675,-2.2704,-2.2809,-2.2813,-2.2817,-2.2829,-2.2835,-2.2841,0,0,0,0,0,0,-2.2326,-2.2376,-2.2377,-2.2443,-2.2477,-2.2521,-2.2552,-2.2554,-2.2593,-2.259,-2.2608,-2.2618,-2.2674,-2.2695,-2.2669,-2.2764,-2.2745,-2.2752,-2.2749,-2.2756,-2.2761,-2.2754,-2.2659,0,0,0,0,0,-2.2335,-2.2378,-2.2419,-2.2473,-2.249,-2.2518,-2.2543,-2.2553,-2.2589,-2.2603,-2.263,-2.2664,-2.2705,-2.2731,-2.2771,-2.2834,-2.2842,-2.286,-2.2865,-2.2869,-2.2874,-2.2907,-2.2915,-2.2832,-2.2832,-2.2832,0,0,-2.2354,-2.2387,-2.2413,-2.2475,-2.2503,-2.2545,-2.253,-2.2576,-2.2607,-2.261,-2.2665,-2.2686,-2.2725,-2.2785,-2.2812,-2.2803,-2.2899,-2.2874,-2.2877,-2.288,-2.2912,-2.2919,-2.2926,-2.2834,-2.2834,-2.2833,0,0,-2.241,-2.244,-2.2487,-2.2515,-2.2558,-2.2576,-2.2587,-2.2629,-2.2643,-2.27,-2.2702,-2.2738,-2.2808,-2.2835,-2.2858,-2.2922,-2.2921,-2.2934,-2.2961,-2.2992,-2.2999,-2.3004,-2.3026,-2.3034,-2.2939,-2.294,-2.294,0,-2.2428,-2.2494,-2.2511,-2.2557,-2.2583,-2.2588,-2.2635,-2.266,-2.2713,-2.273,-2.272,-2.2807,-2.2833,-2.2899,-2.2914,-2.2933,-2.2945,-2.2929,-2.2997,-2.3003,-2.3008,-2.3029,-2.3037,-2.2941,-2.2941,-2.294,-2.294,0,-2.2513,-2.2558,-2.259,-2.2642,-2.2672,-2.2718,-2.274,-2.2768,-2.2775,-2.2793,-2.2849,-2.288,-2.2926,-2.2942,-2.2949,-2.3007,-2.3,-2.2993,-2.2974,-2.3017,-2.3037,-2.3045,-2.2942,-2.2942,-2.2942,-2.2941,0,0,-2.2576,-2.2635,-2.2647,-2.267,-2.2716,-2.275,-2.2795,-2.284,-2.2862,-2.2898,-2.2935,-2.2993,-2.2986,-2.3012,-2.3022,-2.3049,-2.3096,-2.3039,-2.304,-2.3047,-2.316,-2.3165,-2.3174,-2.3096,-2.3097,-2.3098,-2.3157,0,-2.2637,-2.2719,-2.2735,-2.2805,-2.2845,-2.2849,-2.2888,-2.2919,-2.2937,-2.2972,-2.2991,-2.3032,-2.302,-2.3036,-2.3063,-2.3084,-2.3119,-2.308,-2.3129,-2.313,-2.3119,-2.3185,-2.3191,-2.3244,-2.3165,-2.3166,-2.3167,0,-2.2719,-2.2757,-2.2831,-2.287,-2.2887,-2.2922,-2.2964,-2.2998,-2.3033,-2.3043,-2.3071,-2.3077,-2.3122,-2.31,-2.3161,-2.3135,-2.3155,-2.3168,-2.3171,-2.3176,-2.3151,-2.3191,-2.3262,-2.327,-2.3179,-2.3178,-2.3178,0,-2.2756,-2.2826,-2.2879,-2.2898,-2.2945,-2.2969,-2.2989,-2.3023,-2.3048,-2.3083,-2.3099,-2.3139,-2.3161,-2.319,-2.3206,-2.3189,-2.3265,-2.3246,-2.3274,-2.3274,-2.329,-2.3289,-2.3365,-2.3304,-2.3304,-2.3304,-2.3304,0,-2.2822,-2.2867,-2.2896,-2.2929,-2.2979,-2.2995,-2.3044,-2.3063,-2.3092,-2.3127,-2.3133,-2.3165,-2.3184,-2.3219,-2.3231,-2.3279,-2.3288,-2.3297,-2.33,-2.3297,-2.3295,-2.331,-2.3307,-2.3306,-2.3305,-2.3305,-2.3305,0,-2.2873,-2.2894,-2.2952,-2.2992,-2.3002,-2.3037,-2.307,-2.31,-2.3117,-2.3162,-2.3173,-2.3199,-2.324,-2.3258,-2.3309,-2.3317,-2.3371,-2.3371,-2.3359,-2.336,-2.3388,-2.3384,-2.3476,-2.3488,-2.3419,-2.342,-2.342,0,-2.2914,-2.2948,-2.2991,-2.3015,-2.3036,-2.3076,-2.3101,-2.3118,-2.3144,-2.3185,-2.321,-2.3251,-2.3285,-2.335,-2.3372,-2.341,-2.3411,-2.344,-2.3417,-2.3412,-2.341,-2.3408,-2.3411,-2.3444,-2.3445,-2.3446,-2.3446,0,-2.2983,-2.2991,-2.3029,-2.3069,-2.31,-2.3132,-2.3164,-2.3183,-2.3204,-2.3233,-2.3275,-2.3301,-2.3352,-2.3392,-2.3431,-2.3451,-2.3451,-2.3453,-2.3462,-2.3459,-2.345,-2.3454,-2.337,-2.3451,-2.3451,-2.345,-2.345,-2.345,-2.3029,-2.306,-2.3094,-2.3135,-2.316,-2.3189,-2.322,-2.324,-2.3276,-2.332,-2.3327,-2.3371,-2.3402,-2.3455,-2.3475,-2.3509,-2.3502,-2.3514,-2.3517,-2.352,-2.3521,-2.3445,-2.3516,-2.3516,-2.3516,-2.3516,-2.3516,0,-2.3098,-2.312,-2.3157,-2.3202,-2.3233,-2.3232,-2.3266,-2.3292,-2.3331,-2.3361,-2.3394,-2.3441,-2.3479,-2.3504,-2.3543,-2.3565,-2.3566,-2.3574,-2.3572,-2.3577,-2.3526,-2.3515,-2.3572,-2.3572,-2.3572,-2.3572,-2.3572,-2.3572,-2.3137,-2.3188,-2.32,-2.3263,-2.3284,-2.3329,-2.3348,-2.3374,-2.3398,-2.345,-2.3483,-2.3499,-2.3526,-2.3566,-2.36,-2.3606,-2.362,-2.3628,-2.3634,-2.3586,-2.358,-2.3575,-2.3564,-2.3631,-2.3631,-2.3682,-2.3682,-2.3682]}]]